Location: Carella
(45.8167°N, 9.2667°E)
Time: 15:39:00
(UTC+00:00)

ATLAS 2AS CENTAUR R/B - Pass Details

Date: 30 March 2020
Orbit: 933 x 1279 km, 63.7° (Epoch: 25 May)

Event Time Altitude Azimuth Distance (km) Brightness Sun altitude
Rises 20:01:39 0° 321° (NW) 4,206 7.1 -22.4°
Reaches altitude 10° 20:04:39 10° 326° (NNW) 3,204 6.1 -22.9°
Maximum altitude 20:12:07 50° 41° (NE) 1,460 3.3 -23.9°
Enters shadow 20:14:22 39° 87° (E) 1,670 3.3 -24.3°
